{"data":{"norad_id":87934,"epoch":"2026-09-15T20:16:14.689344Z","epoch_age_seconds":416648,"freshness":"STALE","line1":"1 87934U          26258.84461446  .00000049  00000+0  37219-4 0  9999","line2":"2 87934  82.9323  94.9212 0030469 348.2095  27.1376 13.73147982642340","mean_motion":13.73147982,"eccentricity":0.0030469,"inclination_deg":82.9323,"raan_deg":94.9212,"arg_perigee_deg":348.2095,"mean_anomaly_deg":27.1376,"bstar":3.7219e-5,"rev_number":64234,"period_min":104.86852246636,"perigee_km":965.84619014743,"apogee_km":1010.735728847,"semimajor_km":7366.4279594972,"source":"CELESTRAK","updated_at":"2026-09-20T09:00:32.480856Z"}}